Tracking 31027 objects as of 18-Jul-2025
HD Live streaming from Space Station
objects crossing your sky now

COSMOS 839 DEB

Track COSMOS 839 DEB now!
10-day predictions


NORAD ID: 10454
Int'l Code: 1976-067AF
Perigee: 874.4 km
Apogee: 2,025.7 km
Inclination: 65.7 °
Period: 114.7 minutes
Semi major axis: 7821 km
RCS: 0.1521 m2 (medium)
Launch date: July 8, 1976
Source: Commonwealth of Independent States (former USSR) (CIS)
Launch site: PLESETSK MISSILE AND SPACE COMPLEX (PKMTR)

Note: This is SATELLITE DEBRIS
Your satellite tracking list
Your tracking list is empty




NASA's NSSDC Master Catalog

Two Line Element Set (TLE):
1 10454U 76067AF  25198.72270998 -.00000102  00000-0 -93690-4 0  9995
2 10454  65.6627  94.3808 0736003 340.1912  17.1821 12.55179295240203
Source of the keplerian elements: AFSPC